TimeEDT,TemperatureF,Dew PointF,Humidity,Sea Level PressureIn,VisibilityMPH,Wind Direction,Wind SpeedMPH,Gust SpeedMPH,PrecipitationIn,Events,Conditions,WindDirDegrees,DateUTC
12:15 AM,71.6,71.6,100,29.88,10.0,Calm,Calm,-,N/A,,Clear,0,2013-06-28 04:15:00
12:35 AM,69.8,69.8,100,29.88,7.0,Calm,Calm,-,N/A,,Clear,0,2013-06-28 04:35:00
12:55 AM,69.8,69.8,100,29.87,7.0,Calm,Calm,-,N/A,,Clear,0,2013-06-28 04:55:00
1:15 AM,69.8,69.8,100,29.86,10.0,Calm,Calm,-,N/A,,Clear,0,2013-06-28 05:15:00
1:35 AM,69.8,69.8,100,29.85,10.0,Calm,Calm,-,N/A,,Clear,0,2013-06-28 05:35:00
1:55 AM,69.8,69.8,100,29.86,7.0,Calm,Calm,-,N/A,,Clear,0,2013-06-28 05:55:00
2:35 AM,69.8,69.8,100,29.86,5.0,Calm,Calm,-,N/A,,Clear,0,2013-06-28 06:35:00
2:55 AM,69.8,69.8,100,29.86,5.0,Calm,Calm,-,N/A,,Clear,0,2013-06-28 06:55:00
3:15 AM,69.8,69.8,100,29.86,7.0,Calm,Calm,-,N/A,,Clear,0,2013-06-28 07:15:00
3:35 AM,68.0,68.0,100,29.86,7.0,Calm,Calm,-,N/A,,Clear,0,2013-06-28 07:35:00
3:55 AM,68.0,68.0,100,29.85,7.0,Calm,Calm,-,N/A,,Clear,0,2013-06-28 07:55:00
4:15 AM,68.0,68.0,100,29.84,7.0,Calm,Calm,-,N/A,,Clear,0,2013-06-28 08:15:00
4:35 AM,68.0,68.0,100,29.84,5.0,Calm,Calm,-,N/A,,Clear,0,2013-06-28 08:35:00
4:55 AM,68.0,68.0,100,29.84,2.0,Calm,Calm,-,N/A,,Clear,0,2013-06-28 08:55:00
5:15 AM,68.0,68.0,100,29.83,7.0,Calm,Calm,-,N/A,,Scattered Clouds,0,2013-06-28 09:15:00
5:35 AM,68.0,68.0,100,29.83,5.0,Calm,Calm,-,N/A,,Mostly Cloudy,0,2013-06-28 09:35:00
5:55 AM,68.0,68.0,100,29.84,3.0,Calm,Calm,-,N/A,,Overcast,0,2013-06-28 09:55:00
6:15 AM,68.0,68.0,100,29.84,3.0,Calm,Calm,-,N/A,,Overcast,0,2013-06-28 10:15:00
6:35 AM,68.0,68.0,100,29.84,3.0,Calm,Calm,-,N/A,,Overcast,0,2013-06-28 10:35:00
6:55 AM,68.0,68.0,100,29.84,0.2,Calm,Calm,-,N/A,Fog,Fog,0,2013-06-28 10:55:00
7:15 AM,68.0,68.0,100,29.85,0.5,Calm,Calm,-,N/A,Fog,Fog,0,2013-06-28 11:15:00
7:35 AM,68.0,68.0,100,29.86,1.2,Calm,Calm,-,N/A,,Overcast,0,2013-06-28 11:35:00
7:55 AM,68.0,68.0,100,29.86,7.0,Calm,Calm,-,N/A,,Mostly Cloudy,0,2013-06-28 11:55:00
8:55 AM,71.6,71.6,100,29.86,7.0,South,3.5,-,N/A,,Scattered Clouds,170,2013-06-28 12:55:00
9:15 AM,73.4,73.4,100,29.85,10.0,Calm,Calm,-,N/A,,Scattered Clouds,0,2013-06-28 13:15:00
9:35 AM,75.2,73.4,94,29.85,10.0,Calm,Calm,-,N/A,,Clear,0,2013-06-28 13:35:00
9:55 AM,77.0,73.4,89,29.83,10.0,Calm,Calm,-,N/A,,Clear,0,2013-06-28 13:55:00
10:15 AM,78.8,73.4,83,29.82,10.0,Calm,Calm,-,N/A,,Clear,0,2013-06-28 14:15:00
10:35 AM,78.8,73.4,83,29.82,10.0,Calm,Calm,-,N/A,,Clear,0,2013-06-28 14:35:00
10:55 AM,80.6,73.4,79,29.82,10.0,Calm,Calm,-,N/A,,Clear,0,2013-06-28 14:55:00
11:15 AM,82.4,73.4,74,29.81,10.0,Calm,Calm,-,N/A,,Clear,0,2013-06-28 15:15:00
11:35 AM,82.4,73.4,74,29.81,10.0,SE,3.5,-,N/A,,Clear,140,2013-06-28 15:35:00
11:55 AM,84.2,73.4,70,29.81,10.0,Calm,Calm,-,N/A,,Mostly Cloudy,0,2013-06-28 15:55:00
12:15 PM,84.2,73.4,70,29.81,10.0,Calm,Calm,-,N/A,,Scattered Clouds,0,2013-06-28 16:15:00
12:35 PM,86.0,73.4,66,29.81,10.0,Calm,Calm,-,N/A,,Clear,0,2013-06-28 16:35:00
12:55 PM,86.0,73.4,66,29.80,10.0,Calm,Calm,-,N/A,,Clear,0,2013-06-28 16:55:00
1:15 PM,86.0,73.4,66,29.79,10.0,Calm,Calm,-,N/A,,Clear,0,2013-06-28 17:15:00
1:35 PM,86.0,71.6,62,29.77,10.0,Calm,Calm,-,N/A,,Scattered Clouds,0,2013-06-28 17:35:00
1:55 PM,86.0,73.4,66,29.76,10.0,West,3.5,-,N/A,,Scattered Clouds,280,2013-06-28 17:55:00
2:15 PM,87.8,73.4,62,29.75,10.0,WSW,5.8,-,N/A,,Mostly Cloudy,250,2013-06-28 18:15:00
2:35 PM,87.8,73.4,62,29.73,10.0,West,5.8,-,N/A,,Scattered Clouds,280,2013-06-28 18:35:00
2:55 PM,87.8,73.4,62,29.72,10.0,Calm,Calm,-,N/A,,Scattered Clouds,0,2013-06-28 18:55:00
3:15 PM,89.6,73.4,59,29.72,10.0,West,4.6,-,N/A,,Scattered Clouds,260,2013-06-28 19:15:00
3:35 PM,89.6,73.4,59,29.71,10.0,WSW,5.8,-,N/A,,Scattered Clouds,240,2013-06-28 19:35:00
3:55 PM,87.8,73.4,62,29.70,10.0,West,3.5,-,N/A,,Mostly Cloudy,270,2013-06-28 19:55:00
4:15 PM,87.8,71.6,58,29.70,10.0,West,4.6,9.2,N/A,,Scattered Clouds,260,2013-06-28 20:15:00
4:35 PM,87.8,69.8,55,29.70,10.0,WSW,10.4,-,N/A,,Clear,250,2013-06-28 20:35:00
4:55 PM,87.8,69.8,55,29.69,10.0,West,6.9,-,N/A,,Clear,280,2013-06-28 20:55:00
5:15 PM,86.0,69.8,58,29.69,10.0,WSW,6.9,-,N/A,,Mostly Cloudy,250,2013-06-28 21:15:00
5:35 PM,86.0,69.8,58,29.69,10.0,WSW,4.6,-,N/A,,Scattered Clouds,250,2013-06-28 21:35:00
5:55 PM,86.0,68.0,55,29.70,10.0,West,6.9,-,N/A,,Clear,270,2013-06-28 21:55:00
6:15 PM,84.2,68.0,58,29.68,10.0,West,9.2,-,N/A,,Clear,280,2013-06-28 22:15:00
6:35 PM,86.0,68.0,55,29.68,10.0,West,6.9,-,N/A,,Clear,260,2013-06-28 22:35:00
6:55 PM,84.2,68.0,58,29.69,10.0,West,4.6,-,N/A,,Scattered Clouds,270,2013-06-28 22:55:00
7:15 PM,82.4,68.0,62,29.70,10.0,West,3.5,-,N/A,,Scattered Clouds,260,2013-06-28 23:15:00
7:35 PM,82.4,68.0,62,29.70,10.0,WSW,3.5,-,N/A,,Scattered Clouds,250,2013-06-28 23:35:00
7:55 PM,82.4,69.8,66,29.71,10.0,WSW,3.5,-,N/A,,Scattered Clouds,250,2013-06-28 23:55:00
8:15 PM,78.8,68.0,69,29.74,10.0,NNW,16.1,26.5,N/A,,Mostly Cloudy,340,2013-06-29 00:15:00
8:35 PM,71.6,69.8,94,29.75,10.0,NNW,6.9,-,N/A,Rain-Thunderstorm,Light Thunderstorms and Rain,340,2013-06-29 00:35:00
8:55 PM,71.6,69.8,94,29.75,10.0,ENE,3.5,-,N/A,Rain-Thunderstorm,Rain,70,2013-06-29 00:55:00
9:15 PM,71.6,69.8,94,29.74,10.0,Calm,Calm,-,N/A,,Mostly Cloudy,0,2013-06-29 01:15:00
9:35 PM,69.8,69.8,100,29.75,10.0,Calm,Calm,-,N/A,,Scattered Clouds,0,2013-06-29 01:35:00
9:55 PM,69.8,69.8,100,29.75,10.0,Calm,Calm,-,N/A,,Mostly Cloudy,0,2013-06-29 01:55:00
10:15 PM,71.6,69.8,94,29.75,10.0,SE,3.5,-,N/A,,Overcast,140,2013-06-29 02:15:00
10:35 PM,71.6,69.8,94,29.76,10.0,Calm,Calm,-,N/A,,Overcast,0,2013-06-29 02:35:00
10:55 PM,69.8,69.8,100,29.76,10.0,Calm,Calm,-,N/A,,Overcast,0,2013-06-29 02:55:00
11:15 PM,69.8,69.8,100,29.75,10.0,Calm,Calm,-,N/A,,Scattered Clouds,0,2013-06-29 03:15:00
11:35 PM,69.8,69.8,100,29.75,10.0,SE,3.5,-,N/A,,Clear,140,2013-06-29 03:35:00
11:55 PM,69.8,69.8,100,29.75,10.0,Calm,Calm,-,N/A,,Clear,0,2013-06-29 03:55:00